This is the latest recevied weather packets stored in our database for station/object K7AEL. If no packets are shown the sender has not sent any weather packets the latest 10 day(s).
| Time | Temp. | Humidity | Pressure | Rain* | Wind** | Luminosity | Snow |
|---|---|---|---|---|---|---|---|
| 1777997720 | 18.33° C | 67% | 1013.9 hPa | 0 mm | - | 273 W/m² | - |
| 1777997418 | 18.33° C | 68% | 1014.1 hPa | 0 mm | - | 226 W/m² | - |
| 1777997116 | 17.78° C | 69% | 1014 hPa | 0 mm | - | 175 W/m² | - |
| 1777996813 | 17.78° C | 70% | 1013.8 hPa | 0 mm | - | 111 W/m² | - |
| 1777996509 | 17.78° C | 71% | 1013.9 hPa | 0 mm | - | 106 W/m² | - |
| 1777996205 | 17.78° C | 71% | 1014 hPa | 0 mm | - | 89 W/m² | - |
| 1777995896 | 17.78° C | 73% | 1014 hPa | 0 mm | - | 92 W/m² | - |
| 1777995592 | 17.78° C | 74% | 1013.8 hPa | 0 mm | - | 81 W/m² | - |
| 1777995290 | 17.78° C | 73% | 1013.9 hPa | 0 mm | - | 145 W/m² | - |
| 1777994986 | 17.78° C | 75% | 1013.8 hPa | 0 mm | - | 129 W/m² | - |
| 1777994683 | 17.78° C | 75% | 1013.7 hPa | 0 mm | - | 180 W/m² | - |
| 1777994378 | 17.78° C | 78% | 1013.7 hPa | 0 mm | - | 226 W/m² | - |
| 1777994074 | 17.22° C | 82% | 1013.7 hPa | 0 mm | - | 208 W/m² | - |
| 1777993771 | 16.67° C | 84% | 1013.7 hPa | 0 mm | - | 182 W/m² | - |
| 1777993468 | 16.67° C | 85% | 1013.7 hPa | 0 mm | - | 169 W/m² | - |
| 1777993162 | 16.67° C | 86% | 1013.8 hPa | 0 mm | - | 78 W/m² | - |
| 1777992860 | 16.67° C | 87% | 1013.8 hPa | 0 mm | - | 76 W/m² | - |
| 1777992558 | 16.11° C | 87% | 1013.8 hPa | 0 mm | - | 64 W/m² | - |
| 1777992256 | 16.11° C | 88% | 1013.8 hPa | 0 mm | - | 52 W/m² | - |
| 1777991953 | 15.56° C | 89% | 1013.7 hPa | 0 mm | - | 58 W/m² | - |
| 1777991651 | 15.56° C | 90% | 1013.6 hPa | 0 mm | - | 30 W/m² | - |
| 1777991347 | 16.11° C | 91% | 1013.6 hPa | 0 mm | - | 43 W/m² | - |
| 1777991045 | 15.56° C | 91% | 1013.8 hPa | 0 mm | - | 52 W/m² | - |
| 1777990742 | 15.56° C | 92% | 1013.7 hPa | 0 mm | - | 63 W/m² | - |
| 1777990439 | 15.56° C | 92% | 1013.5 hPa | 0 mm | - | 66 W/m² | - |
* Rain latest hour (hover to see other rain measurements)
** Current wind speed in m/s (hover to see current wind gust speed)